STARLINK-34357 (64310 NORAD) Tracking and Keplerian Element Data

This shows tracking and keplerian element data for the satellite.

Feedback or suggestion? Click here.




ElementValue
Catalog64310
NameSTARLINK-34357
Epoch Orbit2971
Epoch Day354.2392632
Epoch Year2025
RAAN34.9427
Inclination70.0024
Eccentricity0.0003299
Argument of Perigee246.306
Mean Anonmoly113.7753
Mean Motion14.98372895
Decay Rate7.47E-06
L11 64310U 25123V 25354.23926320 .00000747 00000+0 70321-4 0 9997
L22 64310 70.0024 34.9427 0003299 246.3060 113.7753 14.98372895 29714



Live tracking and technical data element details for STARLINK-34357 (NORAD 64310). STARLINK-34357 can be tracked NOW for your location showing map with azimuth and elevation plus other details from your city location.







IsCatalogInMostPopularTable: catalog: 64310, numindb: 9
Update: records affected: 1



GetName: 64310 STARLINK-34357

Hit Count: updated at: Tue, 21 Apr 2026 20:00:54 GMT